Location: Wellington
(41.3000°S, 174.7830°E)
Time: 18:49:52
(UTC+13:00)

BREEZE-M DEB (TANK) - Pass Details

Date: 24 January 2019
Orbit: 279 x 14013 km, 46.1° (Epoch: 21 February)

Event Time Altitude Azimuth Distance (km) Brightness Sun altitude
Rises 22:18:05 0° 289° (WNW) 4,343 7.3 -14.5°
Reaches altitude 10° 22:22:15 10° 285° (WNW) 2,309 5.9 -15.1°
Maximum altitude 22:26:29 64° 203° (SSW) 445 2.0 -15.7°
Enters shadow 22:28:08 16° 122° (ESE) 939 3.4 -15.9°
